Showing default

NOAA 6, 11416

Orbit data source: Space-Track

NOAA 6, 11416 is a payload satellite owned by NOAA (US) in SSO that was launched on Wed, 27 Jun 1979 UTC via an ATLAS F launch vehicle from the Air Force Western Test Range (AFWTR). Payload-class satellites include a variety of spacecraft equipped with specific instruments for various scientific and technological missions. These include communications satellites like Starlink; space stations such as the ISS; scientific satellites like the Hubble; Earth observation satellites from companies like Planet Labs, Umbra, and HawkEye 360; GPS; miniature CubeSats for education and research; and military/defense satellites.

Loading next visibility...
Identifier
11416, 1979-057A
Orbit
SSO
Last TLE update
16 hours ago
Origin
Manufacturer
RCA/East Windsor
Mission
Non-operational Civil Weather
Bus & Motor
TIROS N, STAR 37S
Mass
1,418 kg wet, 684 kg dry
Launch date (UTC)
1979-06-27 (46 years ago)
Launch vehicle
ATLAS F
Launch site
Air Force Western Test Range (AFWTR)
Object type
Payload
Rocket body
Debris
Shape & HBR
Cyl + 1 Pan, 4.9 m
Radar Cross Section
7.472 m², Large (>1 m²)

Expand to show TLE details & history

TLE from 16 hours ago
0 NOAA 6
1 11416U 79057A   25189.84112201  .00000206  00000-0  87600-4 0  9998
2 11416  98.5978 216.1741 0009680 189.2534 170.8474 14.35197938401701
Epoch: 2025-07-08T20:11Z
TLE epoch observation values (Epoch: 2025-07-08T20:11:12.941Z)
Latitude
-0.00006°
Longitude
-13.66013°
Altitude
784.185 km
Speed
7.458 km/s
True Right ascension
14h 24m 41s
True Declination
0° 00' 00"
Sunlit
Object was in daylight at epoch
Visualization orbit readout
Latitude
9.34704°
Longitude
168.41605°
Altitude
769.989 km
Speed
7.473 km/s
Apparent Right ascension
05h 24m 04s
Apparent Declination
-35° 05' 53"
Sunlit
Object is in daylight
Visualization observer readout
Local Sidereal Time
00:12:31
Azimuth
124.567° SE
Elevation
-13.725°
Doppler factor
1
Orbital elements
Apogee altitude
778.463 km
Perigee altitude
764.621 km
Semi-major axis
7,149.679 km
Eccentricity
0.00097
Inclination
98.5978°
RAAN
216.1741°
Arg. of periapsis
189.2534°
True anomaly
Unknown
Mean anomaly
170.8474°
Eccentric anomaly
Unknown
Mean motion
3.59016 °/min
Orbital period
100.27 mins
BSTAR
0.0000876
Loading maneuver chart data...
Loading SW <> Apogee altitude chart data...
Loading historical data...
Loading historical data...
Loading historical data...
Loading historical data...
Loading historical data...
Loading historical data...
Loading historical data...

NOAA 6 Visibility forecast

Observer location: undefined°, undefined°

Span
Click to sort rows by Start time (UTC) header in descending order
Start Az.
Max El. time (UTC)
Max El. Az.
Max El.
End time (UTC)
End Az.
6 mins2025-07-09 13:31:16.127Z50.302° ENE2025-07-09 13:34:16.127Z87.604° E17.633°2025-07-09 13:37:16.127Z128.874° SE
8 mins2025-07-09 15:10:16.127Z357.514° N2025-07-09 15:14:16.127Z278.619° WNW36.738°2025-07-09 15:18:16.127Z217.436° SW
7 mins2025-07-10 00:47:16.127Z111.018° ESE2025-07-10 00:50:16.127Z64.204° ENE23.905°2025-07-10 00:54:16.127Z11.708° NNE
7 mins2025-07-10 02:26:16.127Z208.551° SW2025-07-10 02:29:16.127Z266.024° W30.612°2025-07-10 02:33:16.127Z325.933° NNW
|